Preview of NWS' New Version of Forecast
This preview is not operational and should not be used for support decisions.

Regional Weather Roundup (RWR)

Issued by National Weather Service (NWS)

                            
000
ASUS46 KSEW 190510
RWRWA 

WASHINGTON REGIONAL WEATHER ROUNDUP
NATIONAL WEATHER SERVICE SEATTLE WA
1000 PM PDT THU APR 18 2019

NOTE:"FAIR" INDICATES FEW OR NO CLOUDS BELOW 12,000 FEET WITH NO 
SIGNIFICANT WEATHER AND/OR OBSTRUCTIONS TO VISIBILITY.

WAZ507-509-555>559-190600-
SEATTLE, TACOMA, EVERETT, AND VICINITY
  
CITY           SKY/WX    TMP DP  RH WIND       PRES   REMARKS
EVERETT        CLOUDY    55  52  89 S12       30.08S                  
BOEING FIELD   CLOUDY    57  52  83 S12       30.08S                  
RENTON         CLOUDY    58  53  84 SE7       30.09S                  
SEATAC AIRPORT CLOUDY    55  51  86 S14       30.09S                  
JBLM-MCCHORD   CLOUDY    56  56 100 S3        30.11S                  
PUYALLUP       CLOUDY    55  55 100 CALM      30.12R                  
BREMERTON      LGT RAIN  52  51  97 S10       30.08R                  
JBLM-FT LEWIS  CLOUDY    56  56 100 SE6       30.10S                  
TACOMA NARROWS CLOUDY    54  51  90 SW5       30.11S                  
$$
 
WAZ001-503-506-510-514-515-190600-
NORTH INTERIOR
  
CITY           SKY/WX    TMP DP  RH WIND       PRES   REMARKS
BELLINGHAM     CLOUDY    54  51  90 CALM      30.05S                  
FRIDAY HARBOR  LGT RAIN  52  50  93 CALM      30.06S FOG              
EASTSOUND      CLOUDY    54  54 100 S7        30.04S                  
PORT ANGELES   LGT RAIN  52  50  93 SE6       30.06S                  
EDIZ HOOK      LGT RAIN  49  49  99 CALM      30.06F                  
PORT TOWNSEND  MOCLDY    52  50  93 CALM      30.06S                  
NAS WHIDBEY    LGT RAIN  55  51  86 S3        30.09S                  
ARLINGTON      CLOUDY    56  54  93 S5        30.07S                  
BURLINGTON     CLOUDY    54  54 100 E3        30.05F                  
$$
 
WAZ020-022-039-040-504-511-512-190600-
SOUTHWEST INTERIOR
  
CITY           SKY/WX    TMP DP  RH WIND       PRES   REMARKS
SHELTON        MOCLDY    53  50  89 S7        30.07S                  
OLYMPIA        LGT RAIN  56  52  86 S6        30.10S                  
CHEHALIS       CLOUDY    57  55  94 CALM      30.11S                  
KELSO          MOCLDY    59  54  83 CALM      30.12R                  
VANCOUVER      MOCLDY    64  48  56 NW5       30.07R                  
SCAPPOOSE, OR  MOCLDY    62  50  64 N12       30.08R                  
PORTLAND, OR   MOCLDY    64  49  57 NW6       30.08R                  
$$
 
WAZ021-516-517-190600-
WASHINGTON COAST
  
CITY           SKY/WX    TMP DP  RH WIND       PRES   REMARKS
FORKS          LGT RAIN  51  51 100 S8        30.07S FOG              
HOQUIAM        CLOUDY    52  52 100 CALM      30.10F                  
ASTORIA, OR    CLOUDY    54  51  90 S3        30.12S                  
$$
 
WAZ019-023-024-040-567>569-190600-
CASCADE MOUNTAINS AND COLUMBIA GORGE
  
CITY           SKY/WX    TMP DP  RH WIND       PRES   REMARKS
STAMPEDE PASS  CLOUDY    48  45  89 VRB3      30.11F FOG              
TROUTDALE, OR  MOCLDY    65  52  62 W7        30.07R                  
HOOD RIVER, OR MOCLDY    64  48  55 MISG      30.05S                  
THE DALLES, OR MOCLDY    71  49  45 SW7       30.01S                  
$$

WAZ026-027-041>044-520-521-190600-
EAST SLOPES
  
CITY           SKY/WX    TMP DP  RH WIND       PRES   REMARKS
OMAK           MOCLDY    62  47  57 S7        29.97F                  
WENATCHEE      PTCLDY    59  48  67 NW6       30.03R                  
ELLENSBURG     PTCLDY    58  47  66 NW10      30.03F                  
YAKIMA         MOCLDY    69  46  43 W6        30.01S                  
SUNNYSIDE ARPT MOCLDY    68  50  53 W6        30.00F                  
YAKIMA TC      LGT RAIN  61  51  70 SE5       30.00F                  
$$

WAZ028-034-035-190600-
COLUMBIA BASIN
  
CITY           SKY/WX    TMP DP  RH WIND       PRES   REMARKS
EPHRATA        PTCLDY    59  49  69 CALM      30.00S                  
MOSES LAKE     MOCLDY    65  48  54 CALM      30.01R                  
PASCO          MOCLDY    70  50  49 SE7       30.00S                  
RICHLAND ARPT  MOCLDY    67  51  55 CALM      30.00                   
HERMISTON, OR  MOCLDY    66  54  65 S6        30.00S                  
$$

WAZ036>038-190600-
NORTHEAST WASHINGTON
  
CITY           SKY/WX    TMP DP  RH WIND       PRES   REMARKS
SPOKANE GEIGER MOCLDY    59  45  59 S7        30.06S                  
SPOKANE FELTS  MOCLDY    54  46  74 N5        30.06S                  
FAIRCHILD AFB  MOCLDY    55  49  78 S3        30.05F                  
COEURDALENE,ID MOCLDY    50  44  80 N7        30.07S                  
DEER PARK      CLOUDY    55  44  66 NE3       30.06S                  
$$

WAZ029>033-190600-
SOUTHEAST WASHINGTON
  
CITY           SKY/WX    TMP DP  RH WIND       PRES   REMARKS
PULLMAN        CLEAR     56  45  66 CALM      30.10F                  
LEWISTON, ID   CLEAR     61  47  59 S8        30.06S                  
WALLA WALLA    PTCLDY    64  48  56 E9        30.02F                  
PENDLETON, OR  PTCLDY    61  51  70 SE5       30.03S                  
$$